Winchester, VA

4:13 AM EST on December 07, 2019 (GMT -0500)
Winchester Regional

Weather History for KOKV - November, 2019

Change the Weather History Date:

Saturday, November 16, 2019

  Actual Average Record
Temperature  
Mean Temperature 33 °F -  
Max Temperature 42 °F 54 °F 78 °F (1993)
Min Temperature 24 °F 35 °F 23 °F (1992)
Degree Days  
Heating Degree Days 32    
Moisture  
Dew Point 20 °F    
Average Humidity 57    
Maximum Humidity 81    
Minimum Humidity 36    
Precipitation  
Precipitation 0.00 in - - ()
Sea Level Pressure  
Sea Level Pressure 30.32 in    
Wind  
Wind Speed 4 mph ()    
Max Wind Speed 10 mph    
Max Gust Speed 18 mph    
Visibility 10.0 miles    
Events      
Averages and records for this station are not official NWS values.
T = Trace of Precipitation, MM = Missing Value Source: Averaged Metar Reports

Daily Weather History Graph

Daily Weather History Graph

Search for Another Location

Airport or City:

Astronomy

Nov. 16, 2019 Rise Set
Actual Time 6:56 AM EST 4:57 PM EST
Civil Twilight 6:27 AM EST 5:26 PM EST
Nautical Twilight 5:55 AM EST 5:58 PM EST
Astronomical Twilight 5:23 AM EST 6:30 PM EST
Moon 8:29 PM EST (11/16) 10:47 AM EST (11/16)
Length of Visible Light 10h 58m
Length of Day
10h 00m
Waning Gibbous, 82% of the Moon is Illuminated
Nov 16
Waning Gibbous
Nov 19
Last Quarter
Nov 26
New
Dec 4
First Quarter
Dec 12
Full

Hourly Weather History & Observations

Time (EST) Temp. Windchill Dew Point Humidity Pressure Visibility Wind Dir Wind Speed Gust Speed Precip Events Conditions
12:15 AM 35.6 °F 32.8 °F 23.0 °F 60% 30.25 in 10.0 mi NNW 3.5 mph - N/A   Clear
12:35 AM 35.6 °F 32.8 °F 24.8 °F 65% 30.25 in 10.0 mi North 3.5 mph - N/A   Clear
12:55 AM 33.8 °F 29.6 °F 26.6 °F 75% 30.25 in 10.0 mi North 4.6 mph - N/A   Clear
1:15 AM 33.8 °F 27.7 °F 26.6 °F 75% 30.25 in 10.0 mi NNW 6.9 mph - N/A   Clear
1:35 AM 33.8 °F 29.6 °F 26.6 °F 75% 30.25 in 10.0 mi North 4.6 mph - N/A   Clear
1:55 AM 33.8 °F 28.6 °F 26.6 °F 75% 30.26 in 10.0 mi North 5.8 mph - N/A   Clear
2:15 AM 33.8 °F 28.6 °F 26.6 °F 75% 30.26 in 10.0 mi North 5.8 mph - N/A   Clear
2:55 AM 32.0 °F 27.5 °F 26.6 °F 80% 30.26 in 10.0 mi NNW 4.6 mph - N/A   Clear
3:15 AM 32.0 °F - 26.6 °F 80% 30.26 in 10.0 mi Calm Calm - N/A   Mostly Cloudy
3:35 AM 32.0 °F 28.7 °F 26.6 °F 80% 30.26 in 10.0 mi NNW 3.5 mph - N/A   Overcast
3:55 AM 33.8 °F - 28.4 °F 81% 30.26 in 10.0 mi Calm Calm - N/A   Overcast
4:15 AM 33.8 °F 30.8 °F 28.4 °F 81% 30.27 in 10.0 mi NNW 3.5 mph - N/A   Overcast
4:35 AM 33.8 °F 30.8 °F 28.4 °F 81% 30.27 in 10.0 mi NNW 3.5 mph - N/A   Overcast
4:55 AM 33.8 °F - 28.4 °F 81% 30.28 in 10.0 mi Calm Calm - N/A   Overcast
5:15 AM 33.8 °F 30.8 °F 28.4 °F 81% 30.28 in 10.0 mi NNW 3.5 mph - N/A   Overcast
5:35 AM 33.8 °F 30.8 °F 28.4 °F 81% 30.29 in 10.0 mi NNW 3.5 mph - N/A   Overcast
5:55 AM 33.8 °F 30.8 °F 28.4 °F 81% 30.30 in 10.0 mi NNW 3.5 mph - N/A   Overcast
6:15 AM 33.8 °F 30.8 °F 28.4 °F 81% 30.31 in 10.0 mi NNW 3.5 mph - N/A   Overcast
6:35 AM 33.8 °F 29.6 °F 26.6 °F 75% 30.33 in 10.0 mi North 4.6 mph - N/A   Overcast
6:55 AM 33.8 °F 30.8 °F 26.6 °F 75% 30.33 in 10.0 mi North 3.5 mph - N/A   Overcast
7:15 AM 33.8 °F - 26.6 °F 75% 30.35 in 10.0 mi Calm Calm - N/A   Scattered Clouds
7:35 AM 32.0 °F 28.7 °F 26.6 °F 80% 30.35 in 10.0 mi NNE 3.5 mph - N/A   Clear
8:15 AM 33.8 °F 29.6 °F 26.6 °F 75% 30.36 in 10.0 mi North 4.6 mph - N/A   Clear
8:55 AM 35.6 °F 32.8 °F 24.8 °F 65% 30.38 in 10.0 mi NNE 3.5 mph - N/A   Mostly Cloudy
9:15 AM 35.6 °F 30.7 °F 24.8 °F 65% 30.38 in 10.0 mi NNE 5.8 mph - N/A   Overcast
9:55 AM 37.4 °F 30.8 °F 24.8 °F 60% 30.37 in 10.0 mi NNE 9.2 mph - N/A   Scattered Clouds
10:15 AM 37.4 °F 31.4 °F 24.8 °F 60% 30.37 in 10.0 mi NNE 8.1 mph - N/A   Scattered Clouds
10:35 AM 37.4 °F 32.8 °F 24.8 °F 60% 30.37 in 10.0 mi North 5.8 mph - N/A   Scattered Clouds
10:55 AM 37.4 °F 32.1 °F 23.0 °F 56% 30.37 in 10.0 mi NNE 6.9 mph - N/A   Clear
11:35 AM 37.4 °F 32.8 °F 23.0 °F 56% 30.35 in 10.0 mi ENE 5.8 mph - N/A   Clear
11:55 AM 39.2 °F 33.6 °F 23.0 °F 52% 30.34 in 10.0 mi NE 8.1 mph - N/A   Clear
12:15 PM 39.2 °F 33.6 °F 23.0 °F 52% 30.33 in 10.0 mi ENE 8.1 mph - N/A   Clear
12:55 PM 41.0 °F 35.8 °F 21.2 °F 45% 30.31 in 10.0 mi NNE 8.1 mph - N/A   Clear
1:15 PM 41.0 °F 36.4 °F 19.4 °F 42% 30.30 in 10.0 mi ENE 6.9 mph - N/A   Clear
1:35 PM 41.0 °F 36.4 °F 19.4 °F 42% 30.30 in 10.0 mi NE 6.9 mph - N/A   Clear
1:55 PM 42.8 °F 39.3 °F 19.4 °F 39% 30.30 in 10.0 mi NE 5.8 mph - N/A   Clear
2:15 PM 41.0 °F 35.2 °F 17.6 °F 39% 30.30 in 10.0 mi East 9.2 mph 18.4 mph N/A   Clear
2:35 PM 41.0 °F 34.7 °F 15.8 °F 36% 30.30 in 10.0 mi East 10.4 mph 16.1 mph N/A   Clear
2:55 PM 41.0 °F 35.8 °F 17.6 °F 39% 30.30 in 10.0 mi NE 8.1 mph - N/A   Clear
3:15 PM 41.0 °F 36.4 °F 15.8 °F 36% 30.31 in 10.0 mi ENE 6.9 mph - N/A   Clear
3:35 PM 41.0 °F 37.1 °F 17.6 °F 39% 30.31 in 10.0 mi ENE 5.8 mph - N/A   Clear
3:55 PM 39.2 °F 35.9 °F 15.8 °F 39% 30.31 in 10.0 mi ENE 4.6 mph - N/A   Clear
4:15 PM 39.2 °F 35.0 °F 17.6 °F 42% 30.31 in 10.0 mi ENE 5.8 mph - N/A   Clear
4:55 PM 37.4 °F 34.9 °F 14.0 °F 38% 30.32 in 10.0 mi NE 3.5 mph - N/A   Clear
5:15 PM 35.6 °F - 14.0 °F 41% 30.32 in 10.0 mi Calm Calm - N/A   Clear
5:35 PM 35.6 °F - 14.0 °F 41% 30.33 in 10.0 mi Calm Calm - N/A   Clear
5:55 PM 33.8 °F - 12.2 °F 41% 30.33 in 10.0 mi Calm Calm - N/A   Clear
6:35 PM 33.8 °F 30.8 °F 10.4 °F 38% 30.35 in 10.0 mi NE 3.5 mph - N/A   Clear
6:55 PM 33.8 °F 29.6 °F 10.4 °F 38% 30.35 in 10.0 mi NNE 4.6 mph - N/A   Clear
7:15 PM 32.0 °F - 8.6 °F 38% 30.34 in 10.0 mi Calm Calm - N/A   Clear
7:35 PM 32.0 °F 28.7 °F 8.6 °F 38% 30.34 in 10.0 mi NNE 3.5 mph - N/A   Clear
7:55 PM 32.0 °F - 8.6 °F 38% 30.34 in 10.0 mi Calm Calm - N/A   Clear
8:15 PM 30.2 °F - 8.6 °F 40% 30.34 in 10.0 mi Calm Calm - N/A   Clear
8:55 PM 28.4 °F - 8.6 °F 43% 30.34 in 10.0 mi Calm Calm - N/A   Clear
9:15 PM 26.6 °F - 10.4 °F 51% 30.35 in 10.0 mi Calm Calm - N/A   Clear
9:35 PM 26.6 °F - 8.6 °F 47% 30.35 in 10.0 mi Calm Calm - N/A   Clear
9:55 PM 24.8 °F - 10.4 °F 54% 30.35 in 10.0 mi Calm Calm - N/A   Clear
10:15 PM 26.6 °F 22.6 °F 8.6 °F 47% 30.34 in 10.0 mi North 3.5 mph - N/A   Clear
10:35 PM 28.4 °F 24.6 °F 8.6 °F 43% 30.34 in 10.0 mi North 3.5 mph - N/A   Clear
10:55 PM 30.2 °F - 10.4 °F 44% 30.34 in 10.0 mi Calm Calm - N/A   Mostly Cloudy
11:15 PM 30.2 °F - 10.4 °F 44% 30.33 in 10.0 mi Calm Calm - N/A   Overcast
11:35 PM 30.2 °F - 10.4 °F 44% 30.33 in 10.0 mi Calm Calm - N/A   Overcast
11:55 PM 30.2 °F - 10.4 °F 44% 30.33 in 10.0 mi Calm Calm - N/A   Overcast